Kingston, Jamaica

1:10 PM EST on May 26, 2017 (GMT -0500)
Norman Manley International

Weather History for MKJP - March, 2013

Change the Weather History Date:

Thursday, March 7, 2013

  Actual Average Record
Temperature  
Mean Temperature 80 °F -  
Max Temperature 87 °F 84 °F 88 °F (2015)
Min Temperature 72 °F 75 °F 71 °F (2009)
Cooling Degree Days 14    
Growing Degree Days 30 (Base 50)    
Moisture  
Dew Point 71 °F    
Average Humidity 75    
Maximum Humidity 94    
Minimum Humidity 56    
Precipitation  
Precipitation 0.00 in - - ()
Sea Level Pressure  
Sea Level Pressure 29.99 in    
Wind  
Wind Speed 6 mph ()    
Max Wind Speed 14 mph    
Max Gust Speed -    
Visibility 8.0 miles    
Events      
Averages and records for this station are not official NWS values.
T = Trace of Precipitation, MM = Missing Value Source: Averaged Metar Reports

Daily Weather History Graph

Daily Weather History Graph

Search for Another Location

Airport or City:

Trip Planner

Search our weather history database for the weather conditions in past years. The results will help you decide how hot, cold, wet, or windy it might be!

Date:

Astronomy

Mar. 07, 2013 Rise Set
Actual Time 6:21 AM EST 6:15 PM EST
Civil Twilight 5:59 AM EST 6:36 PM EST
Nautical Twilight 5:34 AM EST 7:02 PM EST
Astronomical Twilight 5:08 AM EST 7:27 PM EST
Moon 2:49 AM EST (3/7) 2:28 PM EST (3/7)
Length of Visible Light 12h 37m
Length of Day
11h 53m
Waning Crescent, 20% of the Moon is Illuminated
Mar 7
Waning Crescent
Mar 11
New
Mar 19
First Quarter
Mar 27
Full
Apr 2
Last Quarter

Hourly Weather History & Observations

Time (EST) Temp. Heat Index Dew Point Humidity Pressure Visibility Wind Dir Wind Speed Gust Speed Precip Events Conditions
12:00 AM 73.4 °F - 71.6 °F 94% 30.01 in 6.2 mi SE 6.9 mph - N/A   Overcast
1:00 AM 76 °F - 73 °F 88% 30.01 in 12 mi SSE 5.8 mph - -   Mostly Cloudy
1:00 AM 75.2 °F - 73.4 °F 94% 30.01 in 6.2 mi SSE 5.8 mph - N/A   Mostly Cloudy
2:00 AM 75.2 °F - 71.6 °F 89% 29.98 in 6.2 mi SE 2.3 mph - N/A   Mostly Cloudy
3:00 AM 75.2 °F - 71.6 °F 89% 29.95 in 6.2 mi North 5.8 mph - N/A   Mostly Cloudy
4:00 AM 75 °F - 70 °F 81% 29.97 in 12 mi North 6.9 mph - -   Haze
4:00 AM 75.2 °F - 69.8 °F 83% 29.95 in 6.2 mi North 6.9 mph - N/A   Mostly Cloudy
5:00 AM 75.2 °F - 69.8 °F 83% 29.95 in 6.2 mi North 8.1 mph - N/A   Mostly Cloudy
6:00 AM 75.2 °F - 69.8 °F 83% 29.98 in 6.2 mi North 9.2 mph - N/A   Scattered Clouds
7:00 AM 74 °F - 70 °F 84% 30.01 in 12 mi NNW 8.1 mph - -   Haze
7:00 AM 75.2 °F - 69.8 °F 83% 30.01 in 6.2 mi NNW 8.1 mph - N/A   Scattered Clouds
8:00 AM 77.0 °F - 71.6 °F 83% 30.01 in 6.2 mi NE 4.6 mph - N/A   Partly Cloudy
9:00 AM 78.8 °F - 69.8 °F 74% 30.04 in 6.2 mi NE 4.6 mph - N/A   Partly Cloudy
10:00 AM 82 °F - 71 °F 61% 30.05 in 19 mi NW 2.3 mph - -   Haze
10:00 AM 82.4 °F 87.2 °F 71.6 °F 70% 30.04 in 6.2 mi NW 2.3 mph - N/A   Partly Cloudy
11:00 AM 82.4 °F 87.2 °F 71.6 °F 70% 30.04 in 6.2 mi SW 9.2 mph - N/A   Partly Cloudy
12:00 PM 82.4 °F 87.2 °F 71.6 °F 70% 30.01 in 6.2 mi South 8.1 mph - N/A   Partly Cloudy
1:00 PM 87.8 °F 97.6 °F 75.2 °F 66% 29.98 in 6.2 mi ENE 4.6 mph - N/A   Mostly Cloudy
1:26 PM 87 °F - 73 °F 56% 29.99 in 8 mi ENE 4.6 mph - -   Haze
2:00 PM 82.4 °F 86.3 °F 69.8 °F 66% 29.95 in 6.2 mi South 11.5 mph - N/A   Scattered Clouds
3:00 PM 82.4 °F 87.2 °F 71.6 °F 70% 29.95 in 6.2 mi South 8.1 mph - N/A   Scattered Clouds
4:00 PM 82 °F - 71 °F 63% 29.96 in 17 mi NNE 4.6 mph - -   Haze
4:00 PM 82.4 °F 87.2 °F 71.6 °F 70% 29.95 in 6.2 mi NNE 4.6 mph - N/A   Scattered Clouds
5:00 PM 82.4 °F 87.2 °F 71.6 °F 70% 29.95 in 6.2 mi NNW 8.1 mph - N/A   Mostly Cloudy
6:00 PM 80.6 °F 83.9 °F 69.8 °F 70% 29.98 in 6.2 mi North 11.5 mph - N/A   Mostly Cloudy
7:00 PM 80 °F - 70 °F 65% 29.99 in 14 mi North 13.8 mph - -   Haze
7:00 PM 78.8 °F - 69.8 °F 74% 30.01 in 6.2 mi North 12.7 mph - N/A   Mostly Cloudy
8:00 PM 78.8 °F - 69.8 °F 74% 30.01 in 6.2 mi North 12.7 mph - N/A   Mostly Cloudy
9:00 PM 78.8 °F - 69.8 °F 74% 30.01 in 6.2 mi North 10.4 mph - N/A   Scattered Clouds
10:00 PM 78 °F - 69 °F 68% 30.03 in 14 mi North 9.2 mph - -   Haze
10:00 PM 78.8 °F - 69.8 °F 74% 30.01 in 6.2 mi North 9.2 mph - N/A   Partly Cloudy
11:00 PM 78.8 °F - 69.8 °F 74% 30.01 in 6.2 mi NE 4.6 mph - N/A   Partly Cloudy